,,Stat5,,Stat1,,Stat2,,Stat3,,Stat4,,Wind1,,Wind1,
time,status,PA1M_AVG,status,PR1M_SUM,status,RH1M_AVG,status,SR1M_AVG,status,TA1M_AVG,status,W1dAve1m,status,W1sAve1m,
2001-04-04, 00:00:00,VALID,918.394,VALID,0,VALID,98.1424,VALID,-0.0339617,VALID,19.5611,VALID,339,VALID,0,
2001-04-04, 00:01:00,VALID,918.4,VALID,0,VALID,98.1488,VALID,0,VALID,19.5742,VALID,324,VALID,0,
2001-04-04, 00:02:00,VALID,918.417,VALID,0,VALID,98.1463,VALID,-0.0339617,VALID,19.5742,VALID,324,VALID,0,
2001-04-04, 00:03:00,VALID,918.415,VALID,0,VALID,98.1895,VALID,-0.0509425,VALID,19.5839,VALID,324,VALID,0,
2001-04-04, 00:04:00,VALID,918.409,VALID,0,VALID,98.2225,VALID,0,VALID,19.5673,VALID,323,VALID,0,
2001-04-04, 00:05:00,VALID,918.403,VALID,0,VALID,98.2721,VALID,-0.0169808,VALID,19.5839,VALID,319,VALID,0,
2001-04-04, 00:06:00,VALID,918.405,VALID,0,VALID,98.2836,VALID,0,VALID,19.5737,VALID,318,VALID,0,
2001-04-04, 00:07:00,VALID,918.393,VALID,0,VALID,98.3039,VALID,-0.0169808,VALID,19.5611,VALID,318,VALID,0,
2001-04-04, 00:08:00,VALID,918.403,VALID,0,VALID,98.3167,VALID,-0.0509425,VALID,19.5742,VALID,318,VALID,0,
2001-04-04, 00:09:00,VALID,918.393,VALID,0,VALID,98.3383,VALID,-0.0339617,VALID,19.5581,VALID,318,VALID,0,
2001-04-04, 00:10:00,VALID,918.386,VALID,0,VALID,98.3535,VALID,-0.0169808,VALID,19.5812,VALID,318,VALID,0,
2001-04-04, 00:11:00,VALID,918.38,VALID,0,VALID,98.3624,VALID,-0.0509425,VALID,19.5578,VALID,318,VALID,0,
2001-04-04, 00:12:00,VALID,918.368,VALID,0,VALID,98.3268,VALID,-0.0169808,VALID,19.5611,VALID,269,VALID,0,
2001-04-04, 00:13:00,VALID,918.379,VALID,0,VALID,98.2925,VALID,-0.0339617,VALID,19.5385,VALID,237,VALID,0,
2001-04-04, 00:14:00,VALID,918.359,VALID,0,VALID,98.2861,VALID,-0.0169808,VALID,19.5327,VALID,218,VALID,0,
2001-04-04, 00:15:00,VALID,918.348,VALID,0,VALID,98.2976,VALID,-0.0169808,VALID,19.5263,VALID,216,VALID,0,
2001-04-04, 00:16:00,VALID,918.343,VALID,0,VALID,98.3128,VALID,-0.0849042,VALID,19.5268,VALID,216,VALID,0,
2001-04-04, 00:17:00,VALID,918.336,VALID,0,VALID,98.3523,VALID,-0.0339617,VALID,19.5196,VALID,216,VALID,0,
2001-04-04, 00:18:00,VALID,918.316,VALID,0,VALID,98.3586,VALID,-0.0339617,VALID,19.5158,VALID,217,VALID,0,
2001-04-04, 00:19:00,VALID,918.302,VALID,0,VALID,98.3751,VALID,0,VALID,19.523,VALID,217,VALID,0,
2001-04-04, 00:20:00,VALID,918.293,VALID,0,VALID,98.3751,VALID,0,VALID,19.5161,VALID,217,VALID,0,
2001-04-04, 00:21:00,VALID,918.268,VALID,0,VALID,98.4108,VALID,-0.0509425,VALID,19.5124,VALID,217,VALID,0,
2001-04-04, 00:22:00,VALID,918.261,VALID,0,VALID,98.4375,VALID,-0.0339617,VALID,19.529,VALID,215,VALID,0.011489,
2001-04-04, 00:23:00,VALID,918.248,VALID,0,VALID,98.4158,VALID,-0.0169808,VALID,19.5357,VALID,210,VALID,0.637458,
2001-04-04, 00:24:00,VALID,918.24,VALID,0,VALID,98.4235,VALID,0,VALID,19.5327,VALID,229,VALID,0.625822,
2001-04-04, 00:25:00,VALID,918.241,VALID,0,VALID,98.4578,VALID,-0.0169808,VALID,19.5424,VALID,229,VALID,0.81065,
2001-04-04, 00:26:00,VALID,918.216,VALID,0,VALID,98.4553,VALID,-0.0169808,VALID,19.5322,VALID,229,VALID,0.740848,
2001-04-04, 00:27:00,VALID,918.195,VALID,0,VALID,98.482,VALID,-0.0339617,VALID,19.5419,VALID,231,VALID,0.639569,
2001-04-04, 00:28:00,VALID,918.178,VALID,0,VALID,98.4921,VALID,-0.0169808,VALID,19.5389,VALID,229,VALID,0.881664,
2001-04-04, 00:29:00,VALID,918.138,VALID,0,VALID,98.5163,VALID,-0.0339617,VALID,19.5322,VALID,224,VALID,0.70777,
2001-04-04, 00:30:00,VALID,918.112,VALID,0,VALID,98.5392,VALID,-0.0169808,VALID,19.5221,VALID,222,VALID,0.733643,
2001-04-04, 00:31:00,VALID,918.086,VALID,0,VALID,98.5417,VALID,-0.0169808,VALID,19.5091,VALID,217,VALID,0.935296,
2001-04-04, 00:32:00,VALID,918.048,VALID,0,VALID,98.5684,VALID,-0.0509425,VALID,19.5032,VALID,223,VALID,0.522545,
2001-04-04, 00:33:00,VALID,918.026,VALID,0,VALID,98.604,VALID,-0.0339617,VALID,19.4865,VALID,232,VALID,0.635769,
2001-04-04, 00:34:00,VALID,918.001,VALID,0,VALID,98.6282,VALID,-0.0169808,VALID,19.4902,VALID,224,VALID,0.326287,
2001-04-04, 00:35:00,VALID,917.96,VALID,0,VALID,98.6587,VALID,-0.0509425,VALID,19.4835,VALID,231,VALID,0.397593,
2001-04-04, 00:36:00,VALID,917.939,VALID,0,VALID,98.6854,VALID,-0.0169808,VALID,19.4902,VALID,223,VALID,0.542763,
2001-04-04, 00:37:00,VALID,917.916,VALID,0,VALID,98.7007,VALID,0,VALID,19.4835,VALID,214,VALID,0.254317,
2001-04-04, 00:38:00,VALID,917.901,VALID,0,VALID,98.721,VALID,-0.0509425,VALID,19.4808,VALID,210,VALID,0.354911,
2001-04-04, 00:39:00,VALID,917.888,VALID,0,VALID,98.7554,VALID,-0.0509425,VALID,19.4905,VALID,215,VALID,0.099451,
2001-04-04, 00:40:00,VALID,917.888,VALID,0,VALID,98.7808,VALID,-0.0509425,VALID,19.4838,VALID,216,VALID,0.223805,
2001-04-04, 00:41:00,VALID,917.886,VALID,0,VALID,98.7808,VALID,-0.0169808,VALID,19.4771,VALID,219,VALID,0.222973,
2001-04-04, 00:42:00,VALID,917.908,VALID,0,VALID,98.7833,VALID,-0.0169808,VALID,19.4639,VALID,212,VALID,0.306396,
2001-04-04, 00:43:00,VALID,917.917,VALID,0,VALID,98.81,VALID,-0.0339617,VALID,19.4709,VALID,205,VALID,0.428085,
2001-04-04, 00:44:00,VALID,917.916,VALID,0,VALID,98.8355,VALID,-0.0169808,VALID,19.4607,VALID,189,VALID,0.367411,
2001-04-04, 00:45:00,VALID,917.919,VALID,0,VALID,98.8596,VALID,-0.0509425,VALID,19.4776,VALID,174,VALID,0.210304,
2001-04-04, 00:46:00,VALID,917.906,VALID,0,VALID,98.8749,VALID,-0.0169808,VALID,19.4875,VALID,170,VALID,0.066636,
2001-04-04, 00:47:00,VALID,917.903,VALID,0,VALID,98.8876,VALID,-0.0169808,VALID,19.4967,VALID,162,VALID,0.286529,
2001-04-04, 00:48:00,VALID,917.902,VALID,0,VALID,98.9067,VALID,-0.0169808,VALID,19.5027,VALID,162,VALID,0.106908,
2001-04-04, 00:49:00,VALID,917.891,VALID,0,VALID,98.9156,VALID,0,VALID,19.5161,VALID,162,VALID,0,
2001-04-04, 00:50:00,VALID,917.885,VALID,0,VALID,98.899,VALID,-0.0169808,VALID,19.5099,VALID,162,VALID,0,
2001-04-04, 00:51:00,VALID,917.871,VALID,0,VALID,98.9079,VALID,-0.0339617,VALID,19.5032,VALID,162,VALID,0,
2001-04-04, 00:52:00,VALID,917.873,VALID,0,VALID,98.8723,VALID,-0.0339617,VALID,19.4937,VALID,162,VALID,0,
2001-04-04, 00:53:00,VALID,917.857,VALID,0,VALID,98.8545,VALID,-0.0169808,VALID,19.4739,VALID,162,VALID,0,
2001-04-04, 00:54:00,VALID,917.857,VALID,0,VALID,98.8406,VALID,-0.0169808,VALID,19.4448,VALID,162,VALID,0,
2001-04-04, 00:55:00,VALID,917.863,VALID,0,VALID,98.8304,VALID,-0.0169808,VALID,19.4353,VALID,162,VALID,0,
2001-04-04, 00:56:00,VALID,917.856,VALID,0,VALID,98.8393,VALID,-0.0339617,VALID,19.4095,VALID,174,VALID,0,
2001-04-04, 00:57:00,VALID,917.857,VALID,0,VALID,98.8494,VALID,-0.0339617,VALID,19.407,VALID,175,VALID,0,
2001-04-04, 00:58:00,VALID,917.852,VALID,0,VALID,98.8685,VALID,-0.0169808,VALID,19.4,VALID,175,VALID,0,
2001-04-04, 00:59:00,VALID,917.858,VALID,0,VALID,98.8812,VALID,-0.0509425,VALID,19.3938,VALID,173,VALID,0,
2001-04-04, 01:00:00,VALID,917.864,VALID,0,VALID,98.8952,VALID,0,VALID,19.3802,VALID,159,VALID,0,
2001-04-04, 01:01:00,VALID,917.879,VALID,0,VALID,98.9041,VALID,-0.0339617,VALID,19.3735,VALID,151,VALID,0.458059,
2001-04-04, 01:02:00,VALID,917.875,VALID,0,VALID,98.9118,VALID,-0.0339617,VALID,19.3705,VALID,149,VALID,0.645312,
2001-04-04, 01:03:00,VALID,917.883,VALID,0,VALID,98.9207,VALID,-0.0339617,VALID,19.3673,VALID,149,VALID,0.554265,
2001-04-04, 01:04:00,VALID,917.886,VALID,0,VALID,98.9245,VALID,-0.0169808,VALID,19.3777,VALID,149,VALID,0.348575,
2001-04-04, 01:05:00,VALID,917.889,VALID,0,VALID,98.9245,VALID,-0.0169808,VALID,19.374,VALID,149,VALID,0.232475,
2001-04-04, 01:06:00,VALID,917.88,VALID,0,VALID,98.9194,VALID,-0.0339617,VALID,19.3715,VALID,149,VALID,0.0651855,
2001-04-04, 01:07:00,VALID,917.866,VALID,0,VALID,98.9105,VALID,-0.0339617,VALID,19.3476,VALID,149,VALID,0,
2001-04-04, 01:08:00,VALID,917.852,VALID,0,VALID,98.9283,VALID,-0.0509425,VALID,19.3581,VALID,149,VALID,0.0203125,
2001-04-04, 01:09:00,VALID,917.845,VALID,0,VALID,98.9448,VALID,-0.0169808,VALID,19.3613,VALID,120,VALID,0.637247,
2001-04-04, 01:10:00,VALID,917.835,VALID,0,VALID,98.9436,VALID,-0.0339617,VALID,19.3648,VALID,104,VALID,0.675551,
2001-04-04, 01:11:00,VALID,917.82,VALID,0,VALID,98.9385,VALID,-0.0169808,VALID,19.3484,VALID,96,VALID,0.745144,
2001-04-04, 01:12:00,VALID,917.818,VALID,0,VALID,98.927,VALID,-0.0169808,VALID,19.3384,VALID,97,VALID,0.611225,
2001-04-04, 01:13:00,VALID,917.796,VALID,0,VALID,98.927,VALID,-0.0339617,VALID,19.3287,VALID,96,VALID,0.583676,
2001-04-04, 01:14:00,VALID,917.799,VALID,0,VALID,98.9397,VALID,-0.0339617,VALID,19.3389,VALID,99,VALID,0.502902,
2001-04-04, 01:15:00,VALID,917.799,VALID,0,VALID,98.9461,VALID,-0.0679233,VALID,19.3362,VALID,99,VALID,0.28125,
2001-04-04, 01:16:00,VALID,917.787,VALID,0,VALID,98.9372,VALID,-0.0509425,VALID,19.326,VALID,99,VALID,0.0758272,
2001-04-04, 01:17:00,VALID,917.782,VALID,0,VALID,98.955,VALID,-0.0509425,VALID,19.3255,VALID,99,VALID,0,
2001-04-04, 01:18:00,VALID,917.768,VALID,0,VALID,98.9499,VALID,-0.0169808,VALID,19.3292,VALID,99,VALID,0,
2001-04-04, 01:19:00,VALID,917.729,VALID,0,VALID,98.9499,VALID,-0.0509425,VALID,19.3258,VALID,99,VALID,0,
2001-04-04, 01:20:00,VALID,917.685,VALID,0,VALID,98.9626,VALID,-0.0509425,VALID,19.3359,VALID,99,VALID,0,
2001-04-04, 01:21:00,VALID,917.649,VALID,0,VALID,98.9626,VALID,-0.0339617,VALID,19.3486,VALID,99,VALID,0,
2001-04-04, 01:22:00,VALID,917.601,VALID,0,VALID,98.9588,VALID,-0.0509425,VALID,19.3623,VALID,99,VALID,0,
2001-04-04, 01:23:00,VALID,917.574,VALID,0,VALID,98.9728,VALID,-0.0339617,VALID,19.3578,VALID,99,VALID,0,
2001-04-04, 01:24:00,VALID,917.539,VALID,0,VALID,98.9486,VALID,-0.0509425,VALID,19.3618,VALID,99,VALID,0,
2001-04-04, 01:25:00,VALID,917.524,VALID,0,VALID,98.9474,VALID,-0.0339617,VALID,19.3486,VALID,99,VALID,0,
2001-04-04, 01:26:00,VALID,917.496,VALID,0,VALID,98.9461,VALID,-0.0509425,VALID,19.3558,VALID,99,VALID,0,
2001-04-04, 01:27:00,VALID,917.492,VALID,0,VALID,98.9601,VALID,-0.0339617,VALID,19.365,VALID,99,VALID,0,
2001-04-04, 01:28:00,VALID,917.48,VALID,0,VALID,98.9614,VALID,-0.0509425,VALID,19.3581,VALID,99,VALID,0,
2001-04-04, 01:29:00,VALID,917.456,VALID,0,VALID,98.9703,VALID,-0.0339617,VALID,19.3809,VALID,99,VALID,0,
2001-04-04, 01:30:00,VALID,917.436,VALID,0,VALID,98.9626,VALID,-0.0339617,VALID,19.368,VALID,99,VALID,0,
2001-04-04, 01:31:00,VALID,917.438,VALID,0,VALID,98.9321,VALID,-0.0509425,VALID,19.3588,VALID,99,VALID,0,
2001-04-04, 01:32:00,VALID,917.413,VALID,0,VALID,98.9397,VALID,-0.0509425,VALID,19.3484,VALID,99,VALID,0,
2001-04-04, 01:33:00,VALID,917.396,VALID,0,VALID,98.941,VALID,-0.0509425,VALID,19.3583,VALID,99,VALID,0,
2001-04-04, 01:34:00,VALID,917.383,VALID,0,VALID,98.9296,VALID,-0.0509425,VALID,19.3518,VALID,99,VALID,0,
2001-04-04, 01:35:00,VALID,917.366,VALID,0,VALID,98.9525,VALID,-0.0339617,VALID,19.3581,VALID,113,VALID,0.144215,
2001-04-04, 01:36:00,VALID,917.342,VALID,0,VALID,98.9499,VALID,0,VALID,19.3648,VALID,122,VALID,0.443462,
2001-04-04, 01:37:00,VALID,917.326,VALID,0,VALID,98.9537,VALID,0,VALID,19.3894,VALID,122,VALID,0.481086,
2001-04-04, 01:38:00,VALID,917.299,VALID,0,VALID,98.9372,VALID,0.0679233,VALID,19.415,VALID,122,VALID,0.611161,
2001-04-04, 01:39:00,VALID,917.275,VALID,0,VALID,98.9168,VALID,0.0849042,VALID,19.4212,VALID,124,VALID,0.667652,
2001-04-04, 01:40:00,VALID,917.258,VALID,0,VALID,98.8812,VALID,0.0849042,VALID,19.4314,VALID,126,VALID,0.589154,
2001-04-04, 01:41:00,VALID,917.238,VALID,0,VALID,98.8266,VALID,0.0679233,VALID,19.4309,VALID,123,VALID,0.450169,
2001-04-04, 01:42:00,VALID,917.225,VALID,0,VALID,98.7808,VALID,0.0339617,VALID,19.4247,VALID,123,VALID,0.442139,
2001-04-04, 01:43:00,VALID,917.22,VALID,0,VALID,98.7604,VALID,0.0849042,VALID,19.418,VALID,123,VALID,0.38121,
2001-04-04, 01:44:00,VALID,917.212,VALID,0,VALID,98.7236,VALID,0.0509425,VALID,19.418,VALID,123,VALID,0.103571,
2001-04-04, 01:45:00,VALID,917.204,VALID,0,VALID,98.7083,VALID,0.0339617,VALID,19.4279,VALID,123,VALID,0.0821368,
2001-04-04, 01:46:00,VALID,917.176,VALID,0,VALID,98.6829,VALID,0.0509425,VALID,19.4219,VALID,123,VALID,0,
2001-04-04, 01:47:00,VALID,917.166,VALID,0,VALID,98.6791,VALID,0.0509425,VALID,19.4316,VALID,123,VALID,0.000844595,
2001-04-04, 01:48:00,VALID,917.181,VALID,0,VALID,98.6549,VALID,0,VALID,19.4281,VALID,123,VALID,0.000205592,
2001-04-04, 01:49:00,VALID,917.175,VALID,0,VALID,98.6435,VALID,0.0509425,VALID,19.4311,VALID,124,VALID,0.000411184,
2001-04-04, 01:50:00,VALID,917.19,VALID,0,VALID,98.6333,VALID,0.0679233,VALID,19.4348,VALID,124,VALID,0.000669643,
2001-04-04, 01:51:00,VALID,917.184,VALID,0,VALID,98.6295,VALID,0.0509425,VALID,19.4247,VALID,124,VALID,0,
2001-04-04, 01:52:00,VALID,917.172,VALID,0,VALID,98.632,VALID,-0.0339617,VALID,19.4391,VALID,124,VALID,0,
2001-04-04, 01:53:00,VALID,917.153,VALID,0,VALID,98.6346,VALID,-0.0849042,VALID,19.4458,VALID,124,VALID,0,
2001-04-04, 01:54:00,VALID,917.128,VALID,0,VALID,98.6346,VALID,-0.0339617,VALID,19.4525,VALID,124,VALID,0.253906,
2001-04-04, 01:55:00,VALID,917.117,VALID,0,VALID,98.5913,VALID,-0.0679233,VALID,19.4492,VALID,124,VALID,0.346154,
2001-04-04, 01:56:00,VALID,917.106,VALID,0,VALID,98.543,VALID,-0.0509425,VALID,19.4234,VALID,124,VALID,0.346205,
2001-04-04, 01:57:00,VALID,917.078,VALID,0,VALID,98.5227,VALID,-0.0679233,VALID,19.4033,VALID,124,VALID,0.353463,
2001-04-04, 01:58:00,VALID,917.073,VALID,0,VALID,98.5137,VALID,-0.0339617,VALID,19.4038,VALID,124,VALID,0.397518,
2001-04-04, 01:59:00,VALID,917.064,VALID,0,VALID,98.5227,VALID,-0.0509425,VALID,19.404,VALID,116,VALID,0.4394,
2001-04-04, 02:00:00,VALID,917.042,VALID,0,VALID,98.529,VALID,-0.0169808,VALID,19.3976,VALID,111,VALID,0.359169,
2001-04-04, 02:01:00,VALID,917.022,VALID,0,VALID,98.5112,VALID,-0.0509425,VALID,19.3777,VALID,106,VALID,0.485197,
2001-04-04, 02:02:00,VALID,916.999,VALID,0,VALID,98.5125,VALID,-0.0339617,VALID,19.3715,VALID,105,VALID,0.585268,
2001-04-04, 02:03:00,VALID,916.987,VALID,0,VALID,98.4883,VALID,-0.0169808,VALID,19.3585,VALID,101,VALID,0.657728,
2001-04-04, 02:04:00,VALID,916.96,VALID,0,VALID,98.5239,VALID,-0.0509425,VALID,19.3553,VALID,98,VALID,0.665211,
2001-04-04, 02:05:00,VALID,916.943,VALID,0,VALID,98.5633,VALID,-0.0849042,VALID,19.3551,VALID,97,VALID,0.467905,
2001-04-04, 02:06:00,VALID,916.934,VALID,0,VALID,98.5633,VALID,-0.0679233,VALID,19.3581,VALID,95,VALID,0.363037,
2001-04-04, 02:07:00,VALID,916.903,VALID,0,VALID,98.5862,VALID,-0.0339617,VALID,19.3645,VALID,92,VALID,0.375,
2001-04-04, 02:08:00,VALID,916.884,VALID,0,VALID,98.6053,VALID,-0.0679233,VALID,19.3747,VALID,94,VALID,0.280134,
2001-04-04, 02:09:00,VALID,916.867,VALID,0,VALID,98.6346,VALID,-0.0849042,VALID,19.3849,VALID,112,VALID,0.0842483,
2001-04-04, 02:10:00,VALID,916.826,VALID,0,VALID,98.6435,VALID,-0.0339617,VALID,19.3874,VALID,117,VALID,0.348116,
2001-04-04, 02:11:00,VALID,916.792,VALID,0,VALID,98.6473,VALID,-0.0509425,VALID,19.3966,VALID,125,VALID,0.644848,
2001-04-04, 02:12:00,VALID,916.769,VALID,0,VALID,98.6702,VALID,-0.0509425,VALID,19.3966,VALID,128,VALID,0.626645,
2001-04-04, 02:13:00,VALID,916.756,VALID,0,VALID,98.6765,VALID,-0.0169808,VALID,19.4095,VALID,132,VALID,0.588816,
2001-04-04, 02:14:00,VALID,916.736,VALID,0,VALID,98.6841,VALID,-0.0339617,VALID,19.4194,VALID,147,VALID,0.585714,
2001-04-04, 02:15:00,VALID,916.736,VALID,0,VALID,98.688,VALID,-0.0849042,VALID,19.4199,VALID,155,VALID,0.503378,
2001-04-04, 02:16:00,VALID,916.718,VALID,0,VALID,98.7172,VALID,-0.0849042,VALID,19.4224,VALID,155,VALID,0.492417,
2001-04-04, 02:17:00,VALID,916.72,VALID,0,VALID,98.7325,VALID,-0.0509425,VALID,19.4256,VALID,155,VALID,0.425253,
2001-04-04, 02:18:00,VALID,916.705,VALID,0,VALID,98.7312,VALID,-0.0679233,VALID,19.4423,VALID,155,VALID,0.26001,
2001-04-04, 02:19:00,VALID,916.68,VALID,0,VALID,98.7325,VALID,-0.0339617,VALID,19.4386,VALID,155,VALID,0.0566907,
2001-04-04, 02:20:00,VALID,916.665,VALID,0,VALID,98.7147,VALID,-0.0169808,VALID,19.4425,VALID,155,VALID,0,
2001-04-04, 02:21:00,VALID,916.627,VALID,0,VALID,98.7007,VALID,-0.0849042,VALID,19.4395,VALID,155,VALID,0,
2001-04-04, 02:22:00,VALID,916.586,VALID,0,VALID,98.6918,VALID,-0.0169808,VALID,19.4256,VALID,155,VALID,0,
2001-04-04, 02:23:00,VALID,916.569,VALID,0,VALID,98.6994,VALID,0.0509425,VALID,19.4252,VALID,122,VALID,0.221284,
2001-04-04, 02:24:00,VALID,916.521,VALID,0,VALID,98.721,VALID,0.0509425,VALID,19.4309,VALID,97,VALID,0.437911,
2001-04-04, 02:25:00,VALID,916.491,VALID,0,VALID,98.7426,VALID,0.0169808,VALID,19.4436,VALID,84,VALID,0.318873,
2001-04-04, 02:26:00,VALID,916.46,VALID,0,VALID,98.7248,VALID,0.0509425,VALID,19.4373,VALID,58,VALID,0.384375,
2001-04-04, 02:27:00,VALID,916.433,VALID,0,VALID,98.688,VALID,0.0339617,VALID,19.4247,VALID,6,VALID,0.326014,
2001-04-04, 02:28:00,VALID,916.414,VALID,0,VALID,98.6918,VALID,0.0509425,VALID,19.4247,VALID,333,VALID,0.133732,
2001-04-04, 02:29:00,VALID,916.393,VALID,0,VALID,98.6969,VALID,0,VALID,19.4185,VALID,4,VALID,0.129434,
2001-04-04, 02:30:00,VALID,916.373,VALID,0,VALID,98.6816,VALID,0.0509425,VALID,19.4152,VALID,4,VALID,0.000976563,
2001-04-04, 02:31:00,VALID,916.357,VALID,0,VALID,98.6663,VALID,0.0679233,VALID,19.3958,VALID,4,VALID,0.0769231,
2001-04-04, 02:32:00,VALID,916.342,VALID,0,VALID,98.6384,VALID,0.0509425,VALID,19.3631,VALID,22,VALID,0.324107,
2001-04-04, 02:33:00,VALID,916.344,VALID,0,VALID,98.6613,VALID,0.0849042,VALID,19.3631,VALID,86,VALID,0.355785,
2001-04-04, 02:34:00,VALID,916.331,VALID,0,VALID,98.7121,VALID,0.0339617,VALID,19.3762,VALID,89,VALID,0.327206,
2001-04-04, 02:35:00,VALID,916.328,VALID,0,VALID,98.7185,VALID,0.0509425,VALID,19.3727,VALID,85,VALID,0.383235,
2001-04-04, 02:36:00,VALID,916.318,VALID,0,VALID,98.7147,VALID,0.0169808,VALID,19.373,VALID,81,VALID,0.673931,
2001-04-04, 02:37:00,VALID,916.325,VALID,0,VALID,98.7503,VALID,-0.0679233,VALID,19.3936,VALID,84,VALID,0.527138,
2001-04-04, 02:38:00,VALID,916.329,VALID,0,VALID,98.7452,VALID,-0.0679233,VALID,19.3841,VALID,87,VALID,0.476786,
2001-04-04, 02:39:00,VALID,916.331,VALID,0,VALID,98.7503,VALID,-0.0849042,VALID,19.3874,VALID,75,VALID,0.385557,
2001-04-04, 02:40:00,VALID,916.333,VALID,0,VALID,98.7503,VALID,-0.101885,VALID,19.3941,VALID,84,VALID,0.420956,
2001-04-04, 02:41:00,VALID,916.329,VALID,0,VALID,98.7515,VALID,-0.101885,VALID,19.4043,VALID,95,VALID,0.356841,
2001-04-04, 02:42:00,VALID,916.326,VALID,0,VALID,98.7719,VALID,-0.0849042,VALID,19.3904,VALID,101,VALID,0.608887,
2001-04-04, 02:43:00,VALID,916.293,VALID,0,VALID,98.7414,VALID,-0.0339617,VALID,19.3998,VALID,108,VALID,0.786258,
2001-04-04, 02:44:00,VALID,916.267,VALID,0,VALID,98.7261,VALID,-0.0339617,VALID,19.3938,VALID,102,VALID,0.897321,
2001-04-04, 02:45:00,VALID,916.24,VALID,0,VALID,98.7159,VALID,-0.0509425,VALID,19.3933,VALID,102,VALID,0.817779,
2001-04-04, 02:46:00,VALID,916.22,VALID,0,VALID,98.6803,VALID,-0.0509425,VALID,19.371,VALID,102,VALID,0.518842,
2001-04-04, 02:47:00,VALID,916.199,VALID,0,VALID,98.6562,VALID,-0.0679233,VALID,19.3516,VALID,102,VALID,0.234797,
2001-04-04, 02:48:00,VALID,916.182,VALID,0,VALID,98.674,VALID,-0.0339617,VALID,19.3583,VALID,101,VALID,0.178043,
2001-04-04, 02:49:00,VALID,916.168,VALID,0,VALID,98.7083,VALID,-0.0679233,VALID,19.3484,VALID,101,VALID,0.0133635,
2001-04-04, 02:50:00,VALID,916.139,VALID,0,VALID,98.7108,VALID,-0.0679233,VALID,19.3648,VALID,101,VALID,0,
2001-04-04, 02:51:00,VALID,916.138,VALID,0,VALID,98.7159,VALID,-0.0509425,VALID,19.3715,VALID,101,VALID,0,
2001-04-04, 02:52:00,VALID,916.101,VALID,0,VALID,98.6994,VALID,-0.0339617,VALID,19.3615,VALID,102,VALID,0,
2001-04-04, 02:53:00,VALID,916.093,VALID,0,VALID,98.6943,VALID,-0.101885,VALID,19.3523,VALID,101,VALID,0,
2001-04-04, 02:54:00,VALID,916.075,VALID,0,VALID,98.6943,VALID,-0.0679233,VALID,19.3551,VALID,101,VALID,0,
2001-04-04, 02:55:00,VALID,916.062,VALID,0,VALID,98.707,VALID,-0.0679233,VALID,19.3518,VALID,101,VALID,0,
2001-04-04, 02:56:00,VALID,916.057,VALID,0,VALID,98.6905,VALID,-0.0849042,VALID,19.3389,VALID,85,VALID,0,
2001-04-04, 02:57:00,VALID,916.028,VALID,0,VALID,98.7045,VALID,-0.0679233,VALID,19.3392,VALID,77,VALID,0,
2001-04-04, 02:58:00,VALID,916.013,VALID,0,VALID,98.7172,VALID,-0.0849042,VALID,19.3553,VALID,77,VALID,0,
2001-04-04, 02:59:00,VALID,915.992,VALID,0,VALID,98.7363,VALID,-0.0849042,VALID,19.3553,VALID,77,VALID,0,
2001-04-04, 03:00:00,VALID,915.963,VALID,0,VALID,98.7452,VALID,-0.0509425,VALID,19.3523,VALID,358,VALID,0.361431,
2001-04-04, 03:01:00,VALID,915.921,VALID,0,VALID,98.7617,VALID,-0.0339617,VALID,19.3456,VALID,334,VALID,0.101768,
2001-04-04, 03:02:00,VALID,915.913,VALID,0,VALID,98.7757,VALID,-0.0679233,VALID,19.3362,VALID,334,VALID,0.137723,
2001-04-04, 03:03:00,VALID,915.887,VALID,0,VALID,98.7808,VALID,-0.0679233,VALID,19.3292,VALID,334,VALID,0.315456,
2001-04-04, 03:04:00,VALID,915.865,VALID,0,VALID,98.8189,VALID,-0.101885,VALID,19.3362,VALID,346,VALID,0.10455,
2001-04-04, 03:05:00,VALID,915.85,VALID,0,VALID,98.8278,VALID,-0.0509425,VALID,19.3255,VALID,347,VALID,0.185389,
2001-04-04, 03:06:00,VALID,915.841,VALID,0,VALID,98.8177,VALID,-0.0849042,VALID,19.3295,VALID,347,VALID,0.0366211,
2001-04-04, 03:07:00,VALID,915.835,VALID,0,VALID,98.8494,VALID,-0.0339617,VALID,19.3255,VALID,347,VALID,0.0506811,
2001-04-04, 03:08:00,VALID,915.82,VALID,0,VALID,98.8507,VALID,0,VALID,19.332,VALID,347,VALID,0.216518,
2001-04-04, 03:09:00,VALID,915.799,VALID,0,VALID,98.8215,VALID,-0.0169808,VALID,19.3191,VALID,125,VALID,0.42462,
2001-04-04, 03:10:00,VALID,915.782,VALID,0,VALID,98.8304,VALID,0,VALID,19.2897,VALID,188,VALID,0.467371,
2001-04-04, 03:11:00,VALID,915.759,VALID,0,VALID,98.8113,VALID,0,VALID,19.2669,VALID,218,VALID,0.706081,
2001-04-04, 03:12:00,VALID,915.74,VALID,0,VALID,98.8316,VALID,0.0169808,VALID,19.2572,VALID,220,VALID,0.858758,
2001-04-04, 03:13:00,VALID,915.726,VALID,0,VALID,98.8685,VALID,0,VALID,19.2542,VALID,226,VALID,0.97574,
2001-04-04, 03:14:00,VALID,915.701,VALID,0,VALID,98.8914,VALID,-0.0169808,VALID,19.254,VALID,225,VALID,0.945313,
2001-04-04, 03:15:00,VALID,915.682,VALID,0,VALID,98.9067,VALID,0,VALID,19.2542,VALID,228,VALID,0.530828,
2001-04-04, 03:16:00,VALID,915.669,VALID,0,VALID,98.913,VALID,0,VALID,19.2473,VALID,234,VALID,0.508042,
2001-04-04, 03:17:00,VALID,915.628,VALID,0,VALID,98.9118,VALID,0,VALID,19.2413,VALID,231,VALID,0.562289,
2001-04-04, 03:18:00,VALID,915.611,VALID,0,VALID,98.9308,VALID,0,VALID,19.2281,VALID,227,VALID,0.56958,
2001-04-04, 03:19:00,VALID,915.604,VALID,0,VALID,98.9423,VALID,-0.0169808,VALID,19.2247,VALID,224,VALID,0.452324,
2001-04-04, 03:20:00,VALID,915.575,VALID,0,VALID,98.941,VALID,0.0169808,VALID,19.2251,VALID,241,VALID,0.437277,
2001-04-04, 03:21:00,VALID,915.582,VALID,0,VALID,98.955,VALID,-0.0169808,VALID,19.2187,VALID,246,VALID,0.0810811,
2001-04-04, 03:22:00,VALID,915.565,VALID,0,VALID,98.9499,VALID,-0.0849042,VALID,19.2033,VALID,244,VALID,0,
2001-04-04, 03:23:00,VALID,915.551,VALID,0,VALID,98.9385,VALID,-0.101885,VALID,19.1975,VALID,244,VALID,0,
2001-04-04, 03:24:00,VALID,915.54,VALID,0,VALID,98.9436,VALID,-0.101885,VALID,19.1712,VALID,229,VALID,0,
2001-04-04, 03:25:00,VALID,915.534,VALID,0,VALID,98.9448,VALID,-0.101885,VALID,19.1714,VALID,190,VALID,0.366776,
2001-04-04, 03:26:00,VALID,915.524,VALID,0,VALID,98.9512,VALID,-0.101885,VALID,19.1521,VALID,181,VALID,0.391964,
2001-04-04, 03:27:00,VALID,915.506,VALID,0,VALID,98.9601,VALID,-0.0849042,VALID,19.1555,VALID,181,VALID,0.164907,
2001-04-04, 03:28:00,VALID,915.499,VALID,0,VALID,98.9652,VALID,-0.101885,VALID,19.1327,VALID,181,VALID,0.133961,
2001-04-04, 03:29:00,VALID,915.492,VALID,0,VALID,98.983,VALID,-0.101885,VALID,19.1257,VALID,181,VALID,0.0627111,
2001-04-04, 03:30:00,VALID,915.479,VALID,0,VALID,98.9931,VALID,-0.101885,VALID,19.123,VALID,181,VALID,0.0314941,
2001-04-04, 03:31:00,VALID,915.461,VALID,0,VALID,98.997,VALID,-0.101885,VALID,19.1297,VALID,181,VALID,0.000200321,
2001-04-04, 03:32:00,VALID,915.469,VALID,0,VALID,99.0046,VALID,-0.0849042,VALID,19.1262,VALID,180,VALID,0.411607,
2001-04-04, 03:33:00,VALID,915.463,VALID,0,VALID,98.9868,VALID,-0.101885,VALID,19.1103,VALID,180,VALID,0.45228,